Flight Track Log - Related Links

Times and Time Zones

All times are in EDT time to prevent confusion due to time zone crossing. See the N559LC flight status page for this flight to view local times or setup timezone preferences in your user account.

Time Position Orientation Groundspeed Altitude Reporting Facility
EDT Latitude Longitude Course Direction KTS MPH feet Rate Location/Type
Sat 08:40:28 PM 39.0833 -84.4333 180° South 200 230 2,900  Level Cincinnati TRACON
Sat 08:41:03 PM 39.0728 -84.3992 112° Southeast 234 269 4,700 3,063 Climbing Indianapolis Center
Sat 08:42:04 PM 39.1342 -84.3731 18° North 260 299 7,800 3,246 Climbing Indianapolis Center
Sat 08:43:05 PM 39.2106 -84.3756 359° North 271 312 11,300 2,557 Climbing Indianapolis Center
Sat 08:44:06 PM 39.3028 -84.3778 359° North 315 362 13,000 836 Climbing Indianapolis Center
Sat 08:45:07 PM 39.4017 -84.3794 359° North 346 398 13,000 984 Level Indianapolis Center
Sat 08:46:08 PM 39.4975 -84.3825 359° North 347 399 15,000 2,479 Climbing Indianapolis Center
Sat 08:47:08 PM 39.5986 -84.3853 359° North 353 406 18,000 1,983 Climbing Indianapolis Center
Sat 08:48:09 PM 39.7014 -84.3886 359° North 361 415 19,000 492 Climbing Indianapolis Center
Sat 08:49:10 PM 39.8064 -84.3919 359° North 369 425 19,000  Level Indianapolis Center
Sat 08:50:11 PM 39.9308 -84.3950 359° North 370 426 19,000  Level Indianapolis Center
Sat 08:51:12 PM 40.0339 -84.3975 359° North 370 426 19,000  Level Indianapolis Center
Sat 08:52:13 PM 40.1369 -84.4011 358° North 370 426 19,000  Level Indianapolis Center
Sat 08:53:13 PM 40.2400 -84.4033 359° North 370 426 19,000  Level Indianapolis Center
Sat 08:54:14 PM 40.3422 -84.4056 359° North 370 426 19,000  Level Indianapolis Center
Sat 08:55:15 PM 40.4425 -84.4083 359° North 366 421 19,000  Level Indianapolis Center
Sat 08:56:16 PM 40.5450 -84.4111 359° North 365 420 19,000  Level Indianapolis Center
Sat 08:57:17 PM 40.6467 -84.4144 359° North 365 420 19,000  Level Indianapolis Center
Sat 08:58:18 PM 40.7478 -84.4169 359° North 365 420 19,000  Level Indianapolis Center
Sat 08:59:18 PM 40.8494 -84.4208 358° North 365 420 19,000  Level Indianapolis Center
Sat 08:59:49 PM 40.8992 -84.4206 360° North 365 420 19,000 -130 Level Cleveland Center
Sat 09:00:50 PM 40.9994 -84.4231 359° North 365 420 18,800 -443 Descending Cleveland Center
Sat 09:01:51 PM 41.1008 -84.4256 359° North 364 419 18,100 -689 Descending Cleveland Center
Sat 09:02:52 PM 41.2006 -84.4283 359° North 364 419 17,400 -689 Descending Cleveland Center
Sat 09:03:53 PM 41.2983 -84.4319 358° North 359 413 16,700 -787 Descending Cleveland Center
Sat 09:04:54 PM 41.4117 -84.3908 15° North 362 417 15,800 -836 Descending Cleveland Center
Sat 09:05:55 PM 41.4975 -84.3186 32° Northeast 366 421 15,000 -787 Descending Cleveland Center
Sat 09:06:56 PM 41.5822 -84.2458 33° Northeast 366 421 14,200 -750 Descending Cleveland Center
Sat 09:08:03 PM 41.6797 -84.1633 32° Northeast 358 412 13,400 -759 Descending Cleveland Center
Sat 09:08:15 PM 41.7000 -84.1467 32° Northeast 357 411 13,200 -764 Descending Cleveland Center
Sat 09:08:58 PM 41.7564 -84.0983 33° Northeast 362 417 12,700 -787 Descending Cleveland Center
Sat 09:09:16 PM 41.7856 -84.0758 30° Northeast 361 415 12,400 -787 Descending Cleveland Center
Sat 09:09:59 PM 41.8342 -84.0136 44° Northeast 368 423 11,900 -1,082 Descending Cleveland Center
Sat 09:10:17 PM 41.8472 -83.9672 69° East 389 448 11,300 -1,672 Descending Cleveland Center
Sat 09:11:00 PM 41.8686 -83.8853 71° East 365 420 10,200 -1,700 Descending Cleveland Center
Sat 09:11:17 PM 41.8781 -83.8483 71° East 325 374 9,600 -1,769 Descending Cleveland Center
Sat 09:12:18 PM 41.9058 -83.7403 71° East 300 345 7,900 -1,600 Descending Cleveland Center
Sat 09:13:02 PM 41.9225 -83.6703 72° East 303 349 6,800 -1,770 Descending Cleveland Center
Sat 09:13:19 PM 41.9336 -83.6319 69° East 287 330 6,100 -1,672 Descending Cleveland Center
Sat 09:14:03 PM 41.9519 -83.5744 67° East 285 328 5,100 -1,700 Descending Cleveland Center
Sat 09:14:19 PM 41.9683 -83.5386 58° Northeast 265 305 4,400 -1,082 Descending Cleveland Center
Sat 09:15:04 PM 41.9939 -83.5006 48° Northeast 259 298 4,000 -885 Descending Cleveland Center
Sat 09:15:20 PM 42.0167 -83.4839 29° Northeast 211 243 3,500 -984 Descending Cleveland Center
Sat 09:16:05 PM 42.0439 -83.4628 30° Northeast 220 253 3,000 -492 Descending Cleveland Center
Sat 09:16:21 PM 42.0611 -83.4508 27° Northeast 154 177 3,000  Level Cleveland Center
Sat 09:17:06 PM 42.0831 -83.4347 29° Northeast 185 213 3,000 -200 Level Cleveland Center
Sat 09:17:21 PM 42.0992 -83.4225 29° Northeast 154 177 2,800 -787 Descending Cleveland Center
Sat 09:18:07 PM 42.1264 -83.4022 29° Northeast 161 185 2,200 -716 Descending Cleveland Center
Sat 09:18:28 PM 42.1369 -83.3939 30° Northeast 129 148 2,000 -689 Descending Cleveland Center
Sat 09:19:08 PM 42.1578 -83.3803 26° Northeast 142 163 1,500 -716 Descending Cleveland Center
Sat 09:19:35 PM 42.1725 -83.3681 32° Northeast 132 152 1,200 -677 Descending Cleveland Center
Sat 09:20:10 PM 42.1886 -83.3572 26° Northeast 133 153 800 -313 Descending Cleveland Center
Sat 09:21:11 PM 42.2183 -83.3342 30° Northeast 132 152 700 -98 Descending Cleveland Center
Sat 09:23:00 PM 42.2000 -83.3500 217° Southwest  Level FlightAware Approximate

Login

Don't have an account? Register now (free) for customized features, flight alerts, and more!